ASTRA 2B

Last updated on Jan. 27, 2020, 4:38 a.m. UTC

1 26494U 00054A   20026.78045104  .00000110  00000-0  00000+0 0  9994
2 26494   4.2071  74.6905 0004953 226.3316 125.0288  1.00270862 70847
UTC
Height (km)
Latitude
Longitude
Inclination
Orbital Period
UTC large
Height (km)
Speed (km/s)
/
Latitude / Longitude
Inclination (degrees)
Orbital Period (minutes)
Azimuth
Elevation
Range (km)
Doppler Factor
iOS Compass Heading
iOS Angle

Next 30 passes for location: Hong Kong

Rise time Rise Azimuth (degrees) Set time Set Azimuth (degrees) Duration Max altitude (degrees)

No matching passes for this satellites